Sutherland, VA

12:36 PM EST on February 10, 2016 (GMT -0500)
Dinwiddie County

Weather History for KPTB - August, 2011

Change the Weather History Date:

Wednesday, August 24, 2011

  Actual Average (KRIC) Record (KRIC)
Temperature  
Mean Temperature 73 °F 77 °F  
Max Temperature 89 °F 87 °F 101 °F (1914)
Min Temperature 57 °F 67 °F 50 °F (1952)
Degree Days  
Heating Degree Days 0 0  
Month to date heating degree days 0  
Since 1 June heating degree days 7  
Since 1 July heating degree days 0  
Cooling Degree Days 8 12  
Month to date cooling degree days 310  
Year to date cooling degree days 1229  
Since 1 June cooling degree days 1068  
Growing Degree Days 23 (Base 50)    
Moisture  
Dew Point 59 °F    
Average Humidity 68    
Maximum Humidity 100    
Minimum Humidity 35    
Precipitation  
Precipitation 0.00 in 0.15 in 2.02 in (1967)
Month to date precipitation 3.67  
Year to date precipitation 29.00  
Snow  
Snow 0.00 in 0.00 in 0.00 in (2002)
Month to date snowfall 0.0  
Since 1 July snowfall 0.0  
Snow Depth -    
Sea Level Pressure  
Sea Level Pressure 30.07 in    
Wind  
Wind Speed 2 mph (South)    
Max Wind Speed 9 mph    
Max Gust Speed 20 mph    
Visibility 8 miles    
Events      
T = Trace of Precipitation, MM = Missing Value Source: NWS Daily Summary

Daily Weather History Graph

Daily Weather History Graph

Search for Another Location

Airport or City:

Trip Planner

Search our weather history database for the weather conditions in past years. The results will help you decide how hot, cold, wet, or windy it might be!

Date:

Astronomy

Aug. 24, 2011 Rise Set
Actual Time 6:33 AM EDT 7:50 PM EDT
Civil Twilight 6:06 AM EDT 8:17 PM EDT
Nautical Twilight 5:34 AM EDT 8:49 PM EDT
Astronomical Twilight 5:00 AM EDT 9:23 PM EDT
Moon 1:35 AM EDT (8/24) 4:33 PM EDT (8/24)
Length of Visible Light 14h 10m
Length of Day
13h 16m
Waning Crescent, 24% of the Moon is Illuminated
Aug 24
Waning Crescent
Aug 28
New
Sep 4
First Quarter
Sep 12
Full
Sep 20
Last Quarter

Hourly Weather History & Observations

Time (EDT) Temp. Heat Index Dew Point Humidity Pressure Visibility Wind Dir Wind Speed Gust Speed Precip Events Conditions
12:15 AM 66.2 °F - 60.8 °F 83% 30.10 in 10.0 mi Calm Calm - N/A   Clear
12:35 AM 62.6 °F - 59.0 °F 88% 30.10 in 10.0 mi Calm Calm - N/A   Clear
12:55 AM 60.8 °F - 57.2 °F 88% 30.10 in 10.0 mi Calm Calm - N/A   Clear
1:15 AM 60.8 °F - 59.0 °F 94% 30.09 in 10.0 mi Calm Calm - N/A   Clear
1:35 AM 60.8 °F - 57.2 °F 88% 30.09 in 10.0 mi Calm Calm - N/A   Clear
1:55 AM 60.8 °F - 57.2 °F 88% 30.08 in 10.0 mi Calm Calm - N/A   Clear
2:15 AM 60.8 °F - 59.0 °F 94% 30.08 in 10.0 mi Calm Calm - N/A   Clear
2:35 AM 60.8 °F - 57.2 °F 88% 30.07 in 10.0 mi Calm Calm - N/A   Clear
2:55 AM 60.8 °F - 57.2 °F 88% 30.08 in 5.0 mi Calm Calm - N/A   Clear
3:15 AM 59.0 °F - 57.2 °F 94% 30.07 in 7.0 mi Calm Calm - N/A   Clear
3:35 AM 60.8 °F - 57.2 °F 88% 30.07 in 7.0 mi Calm Calm - N/A   Clear
3:55 AM 59.0 °F - 57.2 °F 94% 30.06 in 4.0 mi Calm Calm - N/A   Clear
4:15 AM 60.8 °F - 57.2 °F 88% 30.06 in 5.0 mi Calm Calm - N/A   Clear
4:35 AM 59.0 °F - 57.2 °F 94% 30.07 in 5.0 mi Calm Calm - N/A   Clear
4:55 AM 57.2 °F - 57.2 °F 100% 30.07 in 4.0 mi Calm Calm - N/A   Clear
5:15 AM 57.2 °F - 57.2 °F 100% 30.07 in 3.0 mi Calm Calm - N/A   Clear
5:55 AM 59.0 °F - 57.2 °F 94% 30.08 in 2.0 mi Calm Calm - N/A   Clear
6:15 AM 57.2 °F - 57.2 °F 100% 30.08 in 3.0 mi Calm Calm - N/A   Clear
6:35 AM 57.2 °F - 57.2 °F 100% 30.08 in 7.0 mi Calm Calm - N/A   Clear
6:55 AM 57.2 °F - 57.2 °F 100% 30.08 in 2.5 mi Calm Calm - N/A   Clear
7:15 AM 60.8 °F - 57.2 °F 88% 30.09 in 4.0 mi Calm Calm - N/A   Clear
7:35 AM 62.6 °F - 60.8 °F 94% 30.09 in 4.0 mi Calm Calm - N/A   Clear
7:55 AM 66.2 °F - 62.6 °F 88% 30.10 in 5.0 mi Calm Calm - N/A   Clear
8:15 AM 69.8 °F - 62.6 °F 78% 30.10 in 10.0 mi Calm Calm - N/A   Clear
8:35 AM 71.6 °F - 64.4 °F 78% 30.11 in 10.0 mi Calm Calm - N/A   Clear
8:55 AM 73.4 °F - 64.4 °F 73% 30.10 in 10.0 mi Calm Calm - N/A   Clear
9:15 AM 77.0 °F - 62.6 °F 61% 30.10 in 10.0 mi SSE 3.5 mph - N/A   Clear
9:35 AM 78.8 °F - 62.6 °F 57% 30.10 in 10.0 mi South 5.8 mph - N/A   Clear
9:55 AM 80.6 °F 81.8 °F 62.6 °F 54% 30.11 in 7.0 mi South 5.8 mph - N/A   Clear
10:15 AM 80.6 °F 82.3 °F 64.4 °F 58% 30.11 in 10.0 mi South 6.9 mph - N/A   Clear
10:35 AM 82.4 °F 83.9 °F 64.4 °F 54% 30.11 in 10.0 mi South 4.6 mph - N/A   Clear
10:55 AM 82.4 °F 83.9 °F 64.4 °F 54% 30.10 in 10.0 mi South 5.8 mph - N/A   Clear
11:15 AM 84.2 °F 85.0 °F 62.6 °F 48% 30.10 in 10.0 mi South 4.6 mph - N/A   Clear
11:35 AM 84.2 °F 84.4 °F 60.8 °F 45% 30.10 in 10.0 mi SSW 6.9 mph - N/A   Clear
11:55 AM 84.2 °F 83.8 °F 59.0 °F 42% 30.09 in 10.0 mi South 5.8 mph 19.6 mph N/A   Clear
12:15 PM 86.0 °F 84.9 °F 57.2 °F 37% 30.09 in 10.0 mi SW 8.1 mph - N/A   Clear
12:35 PM 87.8 °F 86.5 °F 57.2 °F 35% 30.09 in 10.0 mi SSW 9.2 mph - N/A   Clear
12:55 PM 87.8 °F 86.5 °F 57.2 °F 35% 30.07 in 10.0 mi South 9.2 mph - N/A   Clear
1:15 PM 87.8 °F 87.1 °F 59.0 °F 38% 30.07 in 10.0 mi SW 8.1 mph - N/A   Scattered Clouds
1:35 PM 87.8 °F 86.5 °F 57.2 °F 35% 30.06 in 10.0 mi South 6.9 mph - N/A   Scattered Clouds
1:55 PM 87.8 °F 86.5 °F 57.2 °F 35% 30.05 in 10.0 mi South 9.2 mph - N/A   Scattered Clouds
2:15 PM 87.8 °F 87.1 °F 59.0 °F 38% 30.03 in 10.0 mi SSE 9.2 mph - N/A   Scattered Clouds
2:35 PM 87.8 °F 87.1 °F 59.0 °F 38% 30.02 in 10.0 mi SSE 9.2 mph 17.3 mph N/A   Scattered Clouds
2:55 PM 89.6 °F 88.9 °F 59.0 °F 36% 30.00 in 10.0 mi South 8.1 mph 18.4 mph N/A   Scattered Clouds
3:15 PM 89.6 °F 88.9 °F 59.0 °F 36% 29.99 in 10.0 mi South 6.9 mph - N/A   Clear
3:35 PM 87.8 °F 86.5 °F 57.2 °F 35% 29.99 in 10.0 mi South 6.9 mph 17.3 mph N/A   Clear
4:15 PM 87.8 °F 87.6 °F 60.8 °F 40% 29.97 in 10.0 mi South 9.2 mph - N/A   Scattered Clouds
4:35 PM 89.6 °F 89.5 °F 60.8 °F 38% 29.98 in 10.0 mi South 9.2 mph - N/A   Scattered Clouds
4:55 PM 89.6 °F 89.5 °F 60.8 °F 38% 29.97 in 10.0 mi South 8.1 mph - N/A   Clear
5:15 PM 87.8 °F 87.6 °F 60.8 °F 40% 29.97 in 10.0 mi South 4.6 mph - N/A   Clear
5:35 PM 87.8 °F 87.6 °F 60.8 °F 40% 29.97 in 10.0 mi South 8.1 mph - N/A   Clear
5:55 PM 87.8 °F 87.6 °F 60.8 °F 40% 29.97 in 7.0 mi SSW 6.9 mph - N/A   Clear
6:15 PM 87.8 °F 87.6 °F 60.8 °F 40% 29.97 in 10.0 mi South 5.8 mph - N/A   Clear
6:35 PM 87.8 °F 88.5 °F 62.6 °F 43% 29.97 in 10.0 mi Calm Calm - N/A   Clear
6:55 PM 86.0 °F 86.6 °F 62.6 °F 45% 29.96 in 10.0 mi South 4.6 mph - N/A   Clear
7:15 PM 84.2 °F 85.6 °F 64.4 °F 51% 29.96 in 10.0 mi South 3.5 mph - N/A   Clear
7:35 PM 82.4 °F 83.9 °F 64.4 °F 54% 29.97 in 10.0 mi Calm Calm - N/A   Clear
7:55 PM 80.6 °F 82.3 °F 64.4 °F 58% 29.96 in 10.0 mi Calm Calm - N/A   Clear
8:15 PM 80.6 °F 82.3 °F 64.4 °F 58% 29.97 in 10.0 mi Calm Calm - N/A   Clear
8:35 PM 78.8 °F - 64.4 °F 61% 29.97 in 10.0 mi Calm Calm - N/A   Clear
8:55 PM 75.2 °F - 66.2 °F 73% 29.98 in 10.0 mi Calm Calm - N/A   Clear
9:35 PM 75.2 °F - 66.2 °F 73% 29.99 in 10.0 mi Calm Calm - N/A   Clear
9:55 PM 75.2 °F - 66.2 °F 73% 29.99 in 10.0 mi Calm Calm - N/A   Clear
10:15 PM 75.2 °F - 66.2 °F 73% 29.99 in 10.0 mi Calm Calm - N/A   Clear
10:35 PM 73.4 °F - 66.2 °F 78% 29.99 in 10.0 mi Calm Calm - N/A   Clear
10:55 PM 73.4 °F - 66.2 °F 78% 29.99 in 10.0 mi SSE 3.5 mph - N/A   Clear
11:15 PM 75.2 °F - 66.2 °F 73% 29.99 in 10.0 mi South 4.6 mph - N/A   Clear
11:35 PM 75.2 °F - 66.2 °F 73% 29.99 in 10.0 mi SSE 6.9 mph - N/A   Clear
11:55 PM 75.2 °F - 66.2 °F 73% 29.98 in 10.0 mi South 6.9 mph - N/A   Clear